Jackson, MS

12:41 AM CST on November 25, 2017 (GMT -0600)
Jackson-Evers International

Weather History for KJAN - December, 2012

Change the Weather History Date:

Wednesday, December 19, 2012

  Actual Average Record
Temperature  
Mean Temperature 60 °F 47 °F  
Max Temperature 76 °F 57 °F 76 °F (1984)
Min Temperature 43 °F 37 °F 14 °F (1901)
Degree Days  
Heating Degree Days 5 18  
Month to date heating degree days 144 313  
Since 1 July heating degree days 625 721  
Cooling Degree Days 0 0  
Month to date cooling degree days 4 0  
Year to date cooling degree days 2525 2253  
Growing Degree Days 9 (Base 50)    
Moisture  
Dew Point 50 °F    
Average Humidity 64    
Maximum Humidity 92    
Minimum Humidity 36    
Precipitation  
Precipitation T in 0.16 in 1.48 in (1987)
Month to date precipitation 4.00 3.27  
Year to date precipitation 64.81 52.26  
Sea Level Pressure  
Sea Level Pressure 29.91 in    
Wind  
Wind Speed 11 mph (SSE)    
Max Wind Speed 22 mph    
Max Gust Speed 29 mph    
Visibility 10 miles    
Events Rain    
T = Trace of Precipitation, MM = Missing Value Source: NWS Daily Summary

Daily Weather History Graph

Daily Weather History Graph

Search for Another Location

Airport or City:

Trip Planner

Search our weather history database for the weather conditions in past years. The results will help you decide how hot, cold, wet, or windy it might be!

Date:

Astronomy

Dec. 19, 2012 Rise Set
Actual Time 6:56 AM CST 4:58 PM CST
Civil Twilight 6:29 AM CST 5:25 PM CST
Nautical Twilight 5:58 AM CST 5:56 PM CST
Astronomical Twilight 5:29 AM CST 6:26 PM CST
Moon 11:28 AM CST (12/19) No Moon Set
Length of Visible Light 10h 56m
Length of Day
10h 01m
Waxing Crescent, 45% of the Moon is Illuminated
Dec 19
Waxing Crescent
Dec 19
First Quarter
Dec 28
Full
Jan 4
Last Quarter
Jan 11
New

Hourly Weather History & Observations

Time (CST) Temp. Windchill Dew Point Humidity Pressure Visibility Wind Dir Wind Speed Gust Speed Precip Events Conditions
12:54 AM 50.0 °F - 45.0 °F 83% 29.96 in 10.0 mi South 8.1 mph - N/A   Clear
1:54 AM 48.9 °F - 44.1 °F 83% 29.96 in 10.0 mi South 8.1 mph - N/A   Clear
2:54 AM 48.0 °F - 44.1 °F 86% 29.96 in 10.0 mi South 6.9 mph - N/A   Clear
3:54 AM 46.0 °F 43.1 °F 43.0 °F 89% 29.96 in 10.0 mi South 5.8 mph - N/A   Clear
4:54 AM 45.0 °F 42.6 °F 42.1 °F 90% 29.97 in 10.0 mi South 4.6 mph - N/A   Clear
5:54 AM 44.1 °F 40.8 °F 41.0 °F 89% 29.98 in 10.0 mi South 5.8 mph - N/A   Clear
6:54 AM 44.1 °F 40.1 °F 41.0 °F 89% 29.99 in 10.0 mi South 6.9 mph - N/A   Clear
7:54 AM 50.0 °F - 46.0 °F 86% 30.00 in 10.0 mi South 5.8 mph - N/A   Clear
8:54 AM 55.9 °F - 48.9 °F 77% 30.01 in 10.0 mi South 10.4 mph - N/A   Clear
9:54 AM 64.0 °F - 51.1 °F 63% 30.01 in 10.0 mi South 15.0 mph 23.0 mph N/A   Clear
10:54 AM 68.0 °F - 46.9 °F 47% 29.99 in 10.0 mi South 18.4 mph 27.6 mph N/A   Clear
11:54 AM 71.1 °F - 46.0 °F 41% 29.93 in 10.0 mi South 17.3 mph 25.3 mph N/A   Clear
12:54 PM 73.9 °F - 46.9 °F 38% 29.91 in 10.0 mi South 12.7 mph - N/A   Clear
1:54 PM 75.0 °F - 46.9 °F 37% 29.89 in 10.0 mi South 13.8 mph 18.4 mph N/A   Clear
2:54 PM 73.9 °F - 48.9 °F 41% 29.88 in 10.0 mi SSE 11.5 mph - N/A   Clear
3:54 PM 71.1 °F - 50.0 °F 47% 29.88 in 10.0 mi SSE 11.5 mph - N/A   Clear
4:54 PM 66.9 °F - 51.1 °F 57% 29.87 in 10.0 mi SSE 10.4 mph - N/A   Clear
5:54 PM 64.0 °F - 51.1 °F 63% 29.88 in 10.0 mi SSE 8.1 mph - N/A   Mostly Cloudy
6:54 PM 66.0 °F - 51.1 °F 59% 29.88 in 10.0 mi SSE 13.8 mph - N/A   Overcast
7:54 PM 66.0 °F - 55.0 °F 68% 29.86 in 10.0 mi SSE 15.0 mph - N/A   Mostly Cloudy
8:54 PM 64.9 °F - 57.0 °F 75% 29.86 in 10.0 mi SSE 13.8 mph - N/A   Scattered Clouds
9:43 PM 64.4 °F - 57.2 °F 77% 29.85 in 10.0 mi SSE 13.8 mph - N/A   Overcast
9:54 PM 66.0 °F - 59.0 °F 78% 29.84 in 10.0 mi SSE 12.7 mph 20.7 mph N/A   Overcast
10:54 PM 64.0 °F - 61.0 °F 90% 29.79 in 10.0 mi SSE 18.4 mph - 0.00 in Rain Light Rain
11:15 PM 64.4 °F - 60.8 °F 88% 29.80 in 10.0 mi SSE 19.6 mph - N/A   Overcast
11:41 PM 64.4 °F - 60.8 °F 88% 29.81 in 10.0 mi SSE 16.1 mph - N/A   Overcast
11:54 PM 64.0 °F - 62.1 °F 93% 29.79 in 9.0 mi SSE 17.3 mph 28.8 mph N/A   Overcast